Location: Sweetwater (historical)
(38.4624°N, 119.1749°W)
Time: 13:04:38
(UTC+00:00)

Cosmos 1745 Rocket - Pass Details

Date: 13 August 2020
Orbit: 952 x 999 km, 83.0° (Epoch: 20 September)

Event Time Altitude Azimuth Distance (km) Brightness Sun altitude
Rises 12:02:25 0° 346° (NNW) 3,693 7.2 -12.8°
Reaches altitude 10° 12:05:03 10° 340° (NNW) 2,734 6.5 -12.4°
Maximum altitude 12:10:56 45° 270° (W) 1,302 4.3 -11.4°
Drops below altitude 10° 12:16:43 10° 200° (SSW) 2,687 5.9 -10.4°
Sets 12:19:18 0° 194° (SSW) 3,624 6.6 -9.9°
